• Em Portugal
  • Lista de países
  • Para 7 dias
  • Temperatura da água
  • Mapas de satélite
  • Mapa do tempo
  • Widgets de tempo
  • user-avatar
    Iniciar Sessão

    Previsão horária em Klagenfurt

    Hoje, 27 Maio, Domingo

    Tempo Temperatura Precipitação Vento Pressão Humidade
    00:00 +13°C° 0,1 mm 0 m/s 693 mmHg 94%
    01:00 +12°C° 0,1 mm 0 m/s 693 mmHg 95%
    02:00 +12°C° 0 mm 0 m/s 693 mmHg 95%
    03:00 +13°C° 0 mm 1 m/s 693 mmHg 95%
    04:00 +13°C° 0 mm 1 m/s 693 mmHg 95%
    05:00 +13°C° 0,1 mm 0 m/s 693 mmHg 91%
    06:00 +15°C° 0,1 mm 0 m/s 693 mmHg 87%
    07:00 +16°C° 0,1 mm 0 m/s 694 mmHg 83%
    08:00 +20°C° 0,1 mm 1 m/s 694 mmHg 75%
    09:00 +22°C° 0,1 mm 1 m/s 694 mmHg 67%
    10:00 +24°C° 0,1 mm 1 m/s 694 mmHg 60%
    11:00 +24°C° 0,7 mm 1 m/s 694 mmHg 59%
    12:00 +25°C° 0,7 mm 1 m/s 694 mmHg 59%
    13:00 +25°C° 0,7 mm 1 m/s 694 mmHg 58%
    14:00 +25°C° 1,4 mm 1 m/s 694 mmHg 61%
    15:00 +24°C° 1,4 mm 1 m/s 693 mmHg 64%
    16:00 +24°C° 1,4 mm 1 m/s 693 mmHg 67%
    17:00 +20°C° 1,3 mm 0 m/s 693 mmHg 72%
    18:00 +19°C° 1,3 mm 0 m/s 693 mmHg 78%
    19:00 +17°C° 1,3 mm 0 m/s 692 mmHg 84%
    20:00 +16°C° 1,1 mm 0 m/s 693 mmHg 86%
    21:00 +15°C° 1,1 mm 0 m/s 693 mmHg 87%
    22:00 +15°C° 1,1 mm 0 m/s 693 mmHg 89%
    23:00 +14°C° 0,7 mm 0 m/s 693 mmHg 90%

    Amanhã, 28 Maio, Segunda-feira

    Tempo Temperatura Precipitação Vento Pressão Humidade
    00:00 +14°C° 0,7 mm 0 m/s 693 mmHg 91%
    01:00 +13°C° 0,7 mm 0 m/s 692 mmHg 92%
    02:00 +13°C° 0,1 mm 0 m/s 692 mmHg 92%
    03:00 +14°C° 0,1 mm 1 m/s 692 mmHg 92%
    04:00 +13°C° 0,1 mm 1 m/s 692 mmHg 93%
    05:00 +14°C° 0 mm 0 m/s 692 mmHg 89%
    06:00 +16°C° 0 mm 0 m/s 693 mmHg 86%
    07:00 +17°C° 0 mm 0 m/s 693 mmHg 82%
    08:00 +21°C° 0 mm 1 m/s 693 mmHg 74%
    09:00 +23°C° 0 mm 1 m/s 694 mmHg 65%
    10:00 +25°C° 0 mm 1 m/s 694 mmHg 56%
    11:00 +25°C° 0,7 mm 1 m/s 694 mmHg 56%
    12:00 +26°C° 0,7 mm 1 m/s 694 mmHg 57%
    13:00 +26°C° 0,7 mm 1 m/s 694 mmHg 57%
    14:00 +26°C° 0,4 mm 1 m/s 693 mmHg 57%
    15:00 +26°C° 0,4 mm 1 m/s 693 mmHg 57%
    16:00 +25°C° 0,4 mm 1 m/s 693 mmHg 58%
    17:00 +24°C° 0,2 mm 1 m/s 693 mmHg 66%
    18:00 +22°C° 0,2 mm 1 m/s 692 mmHg 74%
    19:00 +21°C° 0,2 mm 1 m/s 692 mmHg 83%
    20:00 +19°C° 0,1 mm 1 m/s 692 mmHg 86%
    21:00 +16°C° 0,1 mm 0 m/s 692 mmHg 89%
    22:00 +15°C° 0,1 mm 0 m/s 692 mmHg 92%
    23:00 +15°C° 0 mm 0 m/s 692 mmHg 92%

    Depois de amanhã, 29 Maio, Terça-feira

    Tempo Temperatura Precipitação Vento Pressão Humidade
    00:00 +14°C° 0 mm 0 m/s 692 mmHg 93%
    01:00 +14°C° 0 mm 0 m/s 691 mmHg 93%
    02:00 +13°C° 0 mm 0 m/s 691 mmHg 93%
    03:00 +13°C° 0 mm 0 m/s 691 mmHg 93%
    04:00 +13°C° 0 mm 0 m/s 690 mmHg 93%
    05:00 +15°C° 0 mm 0 m/s 691 mmHg 89%
    06:00 +16°C° 0 mm 0 m/s 691 mmHg 84%
    07:00 +18°C° 0 mm 0 m/s 691 mmHg 79%
    08:00 +20°C° 0 mm 0 m/s 692 mmHg 70%
    09:00 +24°C° 0 mm 1 m/s 692 mmHg 62%
    10:00 +26°C° 0 mm 1 m/s 692 mmHg 53%
    11:00 +26°C° 0,1 mm 1 m/s 692 mmHg 52%
    12:00 +26°C° 0,1 mm 2 m/s 692 mmHg 50%
    13:00 +27°C° 0,1 mm 2 m/s 691 mmHg 49%
    14:00 +26°C° 0,6 mm 2 m/s 691 mmHg 52%
    15:00 +26°C° 0,6 mm 2 m/s 690 mmHg 56%
    16:00 +25°C° 0,6 mm 2 m/s 690 mmHg 60%
    17:00 +24°C° 0,8 mm 2 m/s 690 mmHg 68%
    18:00 +22°C° 0,8 mm 1 m/s 689 mmHg 75%
    19:00 +21°C° 0,8 mm 1 m/s 689 mmHg 83%
    20:00 +19°C° 0,2 mm 1 m/s 689 mmHg 86%
    21:00 +18°C° 0,2 mm 1 m/s 689 mmHg 89%
    22:00 +16°C° 0,2 mm 1 m/s 689 mmHg 92%
    23:00 +15°C° 0 mm 1 m/s 689 mmHg 92%

    30 Maio, Quarta-feira

    Tempo Temperatura Precipitação Vento Pressão Humidade
    00:00 +15°C° 0 mm 1 m/s 688 mmHg 93%
    01:00 +14°C° 0 mm 1 m/s 688 mmHg 93%
    02:00 +14°C° 0 mm 1 m/s 688 mmHg 94%
    03:00 +14°C° 0 mm 1 m/s 688 mmHg 94%
    04:00 +12°C° 0 mm 0 m/s 688 mmHg 94%
    05:00 +14°C° 0 mm 0 m/s 688 mmHg 89%
    06:00 +16°C° 0 mm 0 m/s 688 mmHg 84%
    07:00 +18°C° 0 mm 0 m/s 689 mmHg 79%
    08:00 +20°C° 0 mm 0 m/s 689 mmHg 70%
    09:00 +24°C° 0 mm 1 m/s 690 mmHg 62%
    10:00 +26°C° 0 mm 1 m/s 690 mmHg 54%
    11:00 +26°C° 0,2 mm 1 m/s 690 mmHg 54%
    12:00 +26°C° 0,2 mm 2 m/s 690 mmHg 54%
    13:00 +26°C° 0,2 mm 2 m/s 689 mmHg 54%
    14:00 +26°C° 0,8 mm 2 m/s 689 mmHg 57%
    15:00 +25°C° 0,8 mm 2 m/s 689 mmHg 59%
    16:00 +25°C° 0,8 mm 2 m/s 688 mmHg 61%
    17:00 +23°C° 0,6 mm 2 m/s 688 mmHg 68%
    18:00 +22°C° 0,6 mm 1 m/s 688 mmHg 75%
    19:00 +21°C° 0,6 mm 1 m/s 688 mmHg 83%
    20:00 +19°C° 0,1 mm 1 m/s 688 mmHg 87%
    21:00 +18°C° 0,1 mm 1 m/s 688 mmHg 91%
    22:00 +16°C° 0,1 mm 1 m/s 688 mmHg 95%
    23:00 +15°C° 0,2 mm 1 m/s 687 mmHg 95%

    31 Maio, Quinta-feira

    Tempo Temperatura Precipitação Vento Pressão Humidade
    00:00 +15°C° 0,2 mm 1 m/s 687 mmHg 96%
    01:00 +15°C° 0,2 mm 1 m/s 687 mmHg 97%
    02:00 +14°C° 0,1 mm 1 m/s 687 mmHg 96%
    03:00 +14°C° 0,1 mm 1 m/s 687 mmHg 96%
    04:00 +14°C° 0,1 mm 1 m/s 687 mmHg 96%
    05:00 +16°C° 0,1 mm 1 m/s 687 mmHg 91%
    06:00 +18°C° 0,1 mm 1 m/s 688 mmHg 86%
    07:00 +20°C° 0,1 mm 1 m/s 688 mmHg 81%
    08:00 +21°C° 0,6 mm 1 m/s 689 mmHg 76%
    09:00 +23°C° 0,6 mm 1 m/s 689 mmHg 71%
    10:00 +24°C° 0,6 mm 1 m/s 689 mmHg 66%
    11:00 +24°C° 1,3 mm 1 m/s 689 mmHg 66%
    12:00 +24°C° 1,3 mm 2 m/s 689 mmHg 67%
    13:00 +25°C° 1,3 mm 2 m/s 689 mmHg 67%
    14:00 +24°C° 0,9 mm 1 m/s 689 mmHg 69%
    15:00 +24°C° 0,9 mm 1 m/s 689 mmHg 70%
    16:00 +23°C° 0,9 mm 1 m/s 688 mmHg 72%
    17:00 +22°C° 0,3 mm 1 m/s 688 mmHg 77%
    18:00 +21°C° 0,3 mm 1 m/s 688 mmHg 82%
    19:00 +17°C° 0,3 mm 0 m/s 688 mmHg 88%
    20:00 +17°C° 0,5 mm 0 m/s 688 mmHg 89%
    21:00 +16°C° 0,5 mm 0 m/s 688 mmHg 91%
    22:00 +15°C° 0,5 mm 0 m/s 689 mmHg 93%
    23:00 +15°C° 0,7 mm 0 m/s 689 mmHg 93%

    1 Junho, Sexta-feira

    Tempo Temperatura Precipitação Vento Pressão Humidade
    00:00 +14°C° 0,7 mm 0 m/s 689 mmHg 94%
    01:00 +14°C° 0,7 mm 0 m/s 689 mmHg 94%
    02:00 +14°C° 0,3 mm 0 m/s 689 mmHg 95%
    03:00 +14°C° 0,3 mm 0 m/s 689 mmHg 95%
    04:00 +14°C° 0,3 mm 0 m/s 689 mmHg 96%
    05:00 +15°C° 0,2 mm 0 m/s 689 mmHg 92%
    06:00 +16°C° 0,2 mm 0 m/s 690 mmHg 88%
    07:00 +17°C° 0,2 mm 0 m/s 690 mmHg 84%
    08:00 +21°C° 0,6 mm 1 m/s 691 mmHg 79%
    09:00 +22°C° 0,6 mm 1 m/s 691 mmHg 73%
    10:00 +24°C° 0,6 mm 1 m/s 691 mmHg 68%
    11:00 +23°C° 1,4 mm 1 m/s 691 mmHg 69%
    12:00 +23°C° 1,4 mm 1 m/s 691 mmHg 70%
    13:00 +23°C° 1,4 mm 1 m/s 691 mmHg 71%
    14:00 +23°C° 0,9 mm 1 m/s 691 mmHg 72%
    15:00 +22°C° 0,9 mm 1 m/s 691 mmHg 73%
    16:00 +22°C° 0,9 mm 1 m/s 691 mmHg 73%
    17:00 +21°C° 0,4 mm 1 m/s 691 mmHg 78%
    18:00 +18°C° 0,4 mm 0 m/s 691 mmHg 82%
    19:00 +17°C° 0,4 mm 0 m/s 691 mmHg 86%
    20:00 +16°C° 0,2 mm 0 m/s 691 mmHg 88%
    21:00 +15°C° 0,2 mm 0 m/s 691 mmHg 89%
    22:00 +15°C° 0,2 mm 1 m/s 691 mmHg 91%
    23:00 +15°C° 0,2 mm 1 m/s 691 mmHg 91%
    Mostrar mais